APSTAR 9

Last updated on Jan. 15, 2021, 6:31 a.m. UTC

1 40982U 15059A   21014.87663674 -.00000273  00000-0  00000-0 0  9991
2 40982   0.0537 273.2741 0002262 259.5792  39.2542  1.00273507 19287
UTC
Height (km)
Latitude
Longitude
Inclination
Orbital Period
UTC large
Height (km)
Speed (km/s)
/
Latitude / Longitude
Inclination (degrees)
Orbital Period (minutes)
Azimuth
Elevation
Range (km)
Doppler Factor
iOS Compass Heading
iOS Angle

Next 30 passes for location: Hong Kong

Rise time Rise Azimuth (degrees) Set time Set Azimuth (degrees) Duration Max altitude (degrees)

No matching passes for this satellites